Location: Trebic
(49.2170°N, 15.8830°E)
Time: 09:56:11
(UTC+02:00)

Transit 4A - Pass Details

Date: 28 July 2019
Orbit: 864 x 981 km, 66.8° (Epoch: 25 August)

Event Time Altitude Azimuth Distance (km) Brightness Sun altitude
Exits shadow 00:48:17 41° 166° (SSE) 1,388 8.3 -21.6°
Maximum altitude 00:50:09 54° 117° (ESE) 1,175 8.2 -21.6°
Drops below altitude 10° 00:56:22 10° 42° (NE) 2,739 11.0 -21.7°
Sets 00:59:00 0° 38° (NE) 3,686 11.8 -21.7°
